Location: 22
(39.7117°N, 89.5929°W)
Time: 19:33:17
(UTC-05:00)

Vanguard 3 - Pass Details

Date: 04 February 2023
Orbit: 508 x 3249 km, 33.4° (Epoch: 30 March)

Event Time Altitude Azimuth Distance (km) Brightness Sun altitude
Rises 02:03:36 0° 277° (W) 6,637 - -56.3°
Reaches altitude 10° 02:09:26 10° 264° (W) 5,919 - -55.4°
Maximum altitude 02:21:43 22° 224° (SW) 5,244 - -53.4°
Drops below altitude 10° 02:34:12 10° 183° (S) 5,933 - -51.3°
Exits shadow 02:37:12 - 175° (S) 6,264 11.5 -50.8°
Sets 02:40:13 0° 169° (S) 6,646 11.7 -50.2°
